Location: Alphen
(52.1351°N, 4.6549°E)
Time: 01:50:35
(UTC+00:00)

H-2A R/B - Pass Details

Date: 27 January 2021
Orbit: 529 x 651 km, 98.3° (Epoch: 26 February)

Event Time Altitude Azimuth Distance (km) Brightness Sun altitude
Rises 06:32:45 0° 12° (NNE) 2,972 6.0 -8.7°
Reaches altitude 10° 06:34:59 10° 10° (N) 2,065 5.2 -8.4°
Maximum altitude 06:39:27 64° 289° (WNW) 728 2.7 -7.7°
Drops below altitude 10° 06:43:53 10° 209° (SSW) 2,052 5.2 -7.1°
Sets 06:46:06 0° 206° (SSW) 2,952 6.0 -6.8°
